STARLINK-1400, 45700

Orbit data source: Space-Track

STARLINK-1400, 45700 is a payload satellite owned by SpaceX/Seattle (US) in LEO that was launched on Thu, 04 Jun 2020 UTC via an FALCON 9 launch vehicle from the Air Force Eastern Test Range (AFETR). Payload-class satellites include a variety of spacecraft equipped with specific instruments for various scientific and technological missions. These include communications satellites like Starlink; space stations such as the ISS; scientific satellites like the Hubble; Earth observation satellites from companies like Planet Labs, Umbra, and HawkEye 360; GPS; miniature CubeSats for education and research; and military/defense satellites.

Loading next visibility...
Identifier
45700, 2020-035AV
Orbit
LEO
Country
Flag of USUS
Related business
Manufacturer
SpaceX/Seattle
Mission
Operational Commercial Communications
Bus & Motor
STARLINK, Unknown motor
Mass
260 kg wet, ~248 kg dry
Launch date (UTC)
2020-06-04 (5 years ago)
Launch vehicle
FALCON 9
Launch site
Air Force Eastern Test Range (AFETR)
Object type
Payload
Rocket body
Debris
Shape & HBR
Box + 1 Pan, 10.1 m
Radar Cross Section
13.562 m², Large (>1 m²)

Expand to show TLE details & history
Last TLE update: 23 hours ago

TLE from 23 hours ago
0 STARLINK-1400
1 45700U 20035AV  25312.03115666  .00017496  00000-0  11889-2 0  9993
2 45700  53.0534 222.7654 0001577  92.5728 267.5442 15.06449666300818
Epoch: 2025-11-08T00:44Z
TLE epoch observation values (Epoch: 2025-11-08T00:44:51.935Z)
Latitude
0.00002°
Longitude
164.08241°
Altitude
547.985 km
Speed
7.589 km/s
True Right ascension
14h 51m 03s
True Declination
0° 00' 00"
Sunlit
Object was in daylight at epoch
Visualization orbit readout
Latitude
Unknown
Longitude
Unknown
Altitude
Unknown
Speed
Unknown
Apparent Right ascension
Unknown
Apparent Declination
Unknown
Sunlit
N/A
Visualization observer readout
Local Sidereal Time
20:11:35
Azimuth
Unknown
Elevation
Unknown
Doppler factor
Unknown
Orbital elements
Apogee altitude
548.422 km
Perigee altitude
546.238 km
Semi-major axis
6,925.467 km
Eccentricity
0.00016
Inclination
53.0534°
RAAN
222.7654°
Arg. of periapsis
92.5728°
True anomaly
267.52615°
Mean anomaly
267.5442°
Eccentric anomaly
267.53517°
Mean motion
3.76591 °/min
Orbital period
95.59 mins
BSTAR
0.0011889
Loading maneuver chart data...
Computing Atmospheric mass density...
Loading historical data...
Loading historical data...
Loading historical data...
Loading historical data...
Loading historical data...
Loading historical data...
Loading historical data...

Documentation

Showing up to 5 results
|